Regional Weather Roundup
Issued by NWS

Home | Current Version | Previous Version | Graphics & Text | Print | Product List | Glossary On
Versions: 1 2 3 4 5 6 7 8 9 10 11 12 13 14 15 16 17 18 19 20 21 22 23 24 25 26 27 28 29 30 31 32 33 34 35 36 37 38 39 40 41 42 43 44 45 46 47 48 49 50
813
ASUS43 KIND 280459
RWRIN

WEATHER ROUNDUP FOR INDIANA
NATIONAL WEATHER SERVICE INDIANAPOLIS IN
100 AM EDT TUE MAR 28 2017

NOTE: "FAIR" INDICATES FEW OR NO CLOUDS BELOW 12,000 FEET WITH NO
SIGNIFICANT WEATHER AND/OR OBSTRUCTIONS TO VISIBILITY.

* - STATION DOES NOT REPORT WEATHER SUCH AS PRECIPITATION OR FOG.

+ - STATION NOT QUALITY CONTROLLED BY THE NATIONAL WEATHER SERVICE.
    USE DATA WITH CAUTION...ESPECIALLY DEWPOINT AND RELATIVE
    HUMIDITY OBSERVATIONS.

INZ001>003-010>013-019-020-280600-
NORTHWEST INDIANA

CITY           SKY/WX    TMP DP  RH WIND       PRES   REMARKS
KNOX *+        CLOUDY    43  30  61 N9        29.92F
MONTICELLO +   CLOUDY    49  47  94 N10       29.90S FOG

$$

LMZ046-743>745-280600-
SOUTHERN LAKE MICHIGAN

STATION/POSITION TIME  TEMP    WIND        PRES    WAVE
                       AIR SEA DIR/SP/G            HT
                 (UTC) (F)     (DEG/KT/KT) (MB)    (FT)
BURNS HARBOR     0440   39     350/  9/ 12 1015.6R
MICHIGAN CITY    0430   38     350/  8/  9   N/A

$$

INZ004-005-014>016-021>024-280600-
NORTH CENTRAL INDIANA

CITY           SKY/WX    TMP DP  RH WIND       PRES   REMARKS
GOSHEN         CLOUDY    50  45  83 N9        29.91S
SOUTH BEND     CLOUDY    42  40  92 N6        29.94S

$$

INZ006>009-017-018-025>027-280600-
NORTHEAST INDIANA

CITY           SKY/WX    TMP DP  RH WIND       PRES   REMARKS
ANGOLA *+      CLOUDY    50  37  62 N6        29.90S
FORT WAYNE     CLOUDY    54  50  86 N10       29.87F
KENDALLVILLE + CLOUDY    50  49  94 N8        29.90F

$$

INZ028-029-035-036-043>045-051>053-280600-
WEST CENTRAL INDIANA

CITY           SKY/WX    TMP DP  RH WIND       PRES   REMARKS
CRAWFORDSVL +  DRIZZLE   52  52 100 N8        29.88R
GREENCASTLE +  CLOUDY    54  54 100 N6        29.86S FOG
LAFAYETTE      CLOUDY    50  50 100 N12       29.90R FOG
TERRE HAUTE    LGT RAIN  56  53  90 N9        29.86S

$$

INZ030>032-037>040-046>048-054>057-064-065-280600-
CENTRAL INDIANA

CITY           SKY/WX    TMP DP  RH WIND       PRES   REMARKS
INDIANAPOLIS   LGT RAIN  56  54  93 N8        29.85R
-EAGLE CREEK   LGT RAIN  56  53  90 N10       29.85R FOG
KOKOMO +       LGT RAIN  54  52  93 N9        29.88S
SHELBYVILLE    LGT RAIN  56  53  90 SW3       29.83S

$$

INZ033-034-041-042-049-050-058-059-280600-
EAST CENTRAL INDIANA

CITY           SKY/WX    TMP DP  RH WIND       PRES   REMARKS
MUNCIE         RAIN      55  53  93 NE12      29.85S FOG
RICHMOND +     DRIZZLE   54  54 100 SW3       29.84S

$$

INZ060-061-067>069-081>083-085>088-280600-
SOUTHWEST INDIANA

CITY           SKY/WX    TMP DP  RH WIND       PRES   REMARKS
EVANSVILLE     CLOUDY    57  52  83 W6        29.86S
HUNTINGBURG *+ MOCLDY    55  54  96 SW7       29.85S

$$

INZ062-063-066-070>080-084-089>092-280600-
SOUTH CENTRAL AND SOUTHEAST INDIANA

CITY           SKY/WX    TMP DP  RH WIND       PRES   REMARKS
BLOOMINGTON    RAIN      56  54  93 CALM      29.84S FOG
MADISON *+     CLOUDY    55  54  94 S3        29.86F
SEYMOUR +      CLOUDY    57  55  94 S6        29.84S FOG

$$





USA.gov is the U.S. government's official web portal to all federal, state and local government web resources and services.